EA1IDU Weather Reports


time (UTC)temp
C
wind
direction
speed
KPH
gust
KPH
rain 1hr
cm
rain 24hr
cm
rain mn
cm
humidity
%
barometer
mb
20260508024101 9 196 4.8 14.5 0.00 0.38 0.00 76 1011.5
20260508023035 9 139 9.7 20.9 0.00 0.38 0.00 75 1011.6
20260508022030 9 106 9.7 17.7 0.00 0.38 0.00 76 1011.5
20260508021025 9 127 4.8 14.5 0.00 0.38 0.00 76 1011.7
20260508020021 9 111 4.8 12.9 0.00 0.38 0.00 76 1011.8
20260508015135 9 120 8.0 14.5 0.00 0.38 0.00 75 1011.7
20260508014111 9 127 9.7 17.7 0.00 0.38 0.00 75 1011.8
20260508013105 9 99 11.3 17.7 0.00 0.38 0.00 75 1011.9
20260508012101 10 132 12.9 20.9 0.00 0.38 0.00 75 1011.9
20260508011055 10 145 12.9 27.4 0.00 0.38 0.00 76 1012.2
20260508010051 10 123 11.3 20.9 0.00 0.38 0.00 76 1012.4
20260508005045 10 151 14.5 27.4 0.00 0.38 0.00 76 1012.5
20260508004040 10 113 11.3 22.5 0.00 0.38 0.00 77 1012.4
20260508003056 10 132 11.3 24.1 0.00 0.38 0.00 77 1012.5
20260508002030 10 138 12.9 24.1 0.00 0.38 0.00 77 1012.5
20260508001026 10 121 8.0 17.7 0.00 0.38 0.00 77 1012.7
20260508000021 10 100 8.0 14.5 0.00 0.38 0.00 77 1012.7
20260507235036 10 133 12.9 25.7 0.00 0.38 0.00 77 1012.7
20260507234111 10 117 11.3 22.5 0.00 0.38 0.00 77 1012.6
20260507233106 10 136 6.4 17.7 0.00 0.38 0.00 78 1012.7
20260507232141 10 144 6.4 14.5 0.00 0.38 0.00 78 1012.6
20260507231056 10 172 6.4 12.9 0.00 0.38 0.00 78 1012.8
20260507230051 10 188 1.6 6.4 0.00 0.38 0.00 78 1012.9
20260507225046 10 164 3.2 9.7 0.00 0.38 0.00 79 1013.0
20260507224042 9 180 0.0 6.4 0.00 0.38 0.00 80 1013.1
20260507223037 9 203 0.0 3.2 0.00 0.38 0.00 80 1013.1
20260507222032 10 138 1.6 3.2 0.00 0.38 0.00 79 1013.1
20260507221027 10 74 3.2 9.7 0.00 0.38 0.00 79 1013.0
20260507220022 10 52 3.2 6.4 0.00 0.38 0.00 79 1013.1
20260507215016 9 45 4.8 11.3 0.00 0.38 0.38 81 1013.1
20260507214112 9 315 0.0 3.2 0.00 0.38 0.38 81 1013.1
20260507213107 9 248 0.0 3.2 0.00 0.38 0.38 81 1013.1
20260507212102 9 0.0 3.2 0.00 0.38 0.38 80 1013.2
20260507211117 9 0.0 0.0 0.00 0.38 0.38 79 1013.2
20260507210052 9 64 1.6 3.2 0.00 0.38 0.38 80 1013.0
20260507205047 9 113 0.0 3.2 0.00 0.38 0.38 81 1013.0
20260507204042 10 135 0.0 3.2 0.00 0.38 0.38 81 1012.8
20260507203057 10 106 1.6 6.4 0.00 0.38 0.38 82 1012.6
20260507202032 10 75 4.8 6.4 0.00 0.38 0.38 82 1012.4
20260507201047 10 68 6.4 12.9 0.00 0.38 0.38 81 1012.2
20260507200022 10 45 4.8 9.7 0.00 0.38 0.38 81 1012.2
20260507195017 10 43 4.8 6.4 0.00 0.38 0.38 80 1012.0
20260507194113 10 45 8.0 12.9 0.00 0.38 0.38 79 1011.8
20260507193107 10 45 8.0 12.9 0.00 0.38 0.38 79 1011.7
20260507192102 10 36 4.8 11.3 0.00 0.38 0.38 79 1011.8
20260507191057 10 42 4.8 12.9 0.00 0.38 0.38 78 1011.8
20260507190053 11 45 9.7 12.9 0.00 0.38 0.38 77 1011.6
20260507185049 11 41 9.7 14.5 0.00 0.38 0.38 78 1011.7
20260507184104 11 45 11.3 17.7 0.00 0.38 0.38 75 1011.6
20260507183058 11 45 12.9 17.7 0.00 0.38 0.38 74 1011.6
20260507182033 11 11 9.7 14.5 0.00 0.38 0.38 75 1011.4
20260507181028 12 45 9.7 17.7 0.00 0.38 0.38 73 1011.4
20260507180023 12 38 6.4 9.7 0.00 0.38 0.38 72 1011.3
20260507175038 12 36 6.4 12.9 0.00 0.38 0.38 72 1011.4
20260507174113 12 45 8.0 14.5 0.00 0.38 0.38 74 1011.5
20260507173129 11 42 12.9 17.7 0.00 0.38 0.38 73 1011.6
20260507172103 11 38 11.3 17.7 0.00 0.38 0.38 75 1011.8
20260507171058 11 55 12.9 24.1 0.00 0.38 0.38 78 1011.7
20260507170053 10 50 12.9 22.5 0.00 0.38 0.38 79 1011.9
20260507165049 10 42 16.1 22.5 0.00 0.38 0.38 78 1011.8
20260507164043 10 45 16.1 20.9 0.00 0.38 0.38 78 1012.0
20260507163038 10 45 16.1 20.9 0.00 0.38 0.38 80 1012.0
20260507162033 10 49 11.3 17.7 0.00 0.38 0.38 84 1012.1
20260507161029 10 45 9.7 12.9 0.00 0.38 0.38 84 1012.4
20260507160023 10 4 6.4 12.9 0.05 0.38 0.38 86 1012.5
20260507155040 9 38 3.2 9.7 0.13 0.38 0.38 88 1012.5
20260507154114 8 8 4.8 12.9 0.33 0.38 0.38 88 1012.5
20260507153109 8 357 8.0 14.5 0.38 0.38 0.38 88 1012.4
20260507152104 8 41 4.8 9.7 0.38 0.38 0.38 88 1012.6
20260507151059 9 32 8.0 14.5 0.38 0.38 0.38 83 1012.3
20260507150054 10 329 6.4 11.3 0.33 0.33 0.33 79 1012.7
20260507145050 10 50 11.3 17.7 0.28 0.28 0.28 72 1012.7
20260507144044 11 184 16.1 25.7 0.05 0.05 0.05 69 1012.6
20260507143039 10 295 12.9 25.7 0.00 0.00 0.00 70 1011.1
20260507142034 11 6 16.1 27.4 0.00 0.00 0.00 63 1010.8
20260507141029 12 6 17.7 32.2 0.00 0.00 0.00 60 1011.0
20260507140024 13 321 24.1 57.9 0.00 0.00 0.00 60 1010.8
20260507135019 15 358 3.2 6.4 0.00 0.00 0.00 59 1010.8
20260507134116 15 117 12.9 22.5 0.00 0.00 0.00 59 1010.5
20260507133111 16 95 12.9 25.7 0.00 0.00 0.00 58 1010.6
20260507132105 15 91 12.9 22.5 0.00 0.00 0.00 59 1010.6
20260507131100 15 98 17.7 29.0 0.00 0.00 0.00 61 1010.7
20260507130055 16 42 14.5 22.5 0.00 0.00 0.00 64 1010.8
20260507125050 15 66 8.0 20.9 0.00 0.00 0.00 65 1010.8
20260507124045 15 46 17.7 27.4 0.00 0.00 0.00 67 1010.9
20260507123039 15 55 12.9 20.9 0.00 0.00 0.00 63 1011.0
20260507122036 15 61 6.4 12.9 0.00 0.00 0.00 61 1011.2
20260507121031 16 112 4.8 6.4 0.00 0.00 0.00 50 1011.4
20260507120026 17 159 6.4 12.9 0.00 0.00 0.00 45 1011.5
20260507115101 17 213 6.4 17.7 0.00 0.00 0.00 46 1011.6
20260507114115 16 188 4.8 12.9 0.00 0.00 0.00 46 1011.6
20260507113110 16 188 8.0 17.7 0.00 0.00 0.00 47 1011.6
20260507112105 16 216 6.4 12.9 0.00 0.00 0.00 49 1011.8
20260507111100 16 162 4.8 11.3 0.00 0.00 0.00 49 1011.8
20260507110136 16 165 3.2 6.4 0.00 0.00 0.00 51 1012.1
20260507105052 16 159 6.4 12.9 0.00 0.00 0.00 51 1012.0
20260507104047 15 208 4.8 12.9 0.00 0.00 0.00 51 1012.1
20260507103042 15 166 8.0 14.5 0.00 0.00 0.00 52 1012.2
20260507102035 15 248 4.8 9.7 0.00 0.00 0.00 52 1012.3
20260507101031 15 172 4.8 12.9 0.00 0.00 0.00 54 1012.3
20260507100026 14 167 8.0 17.7 0.00 0.00 0.00 56 1012.4
20260507095021 13 165 9.7 17.7 0.00 0.00 0.00 58 1012.4
20260507094016 13 71 3.2 12.9 0.00 0.00 0.00 69 1012.5
20260507093132 13 0 4.8 12.9 0.00 0.00 0.00 71 1012.4
20260507092106 12 44 6.4 14.5 0.00 0.00 0.00 73 1012.5
20260507091101 12 100 3.2 6.4 0.00 0.00 0.00 72 1012.7
20260507090057 12 93 4.8 9.7 0.00 0.00 0.00 74 1012.8
20260507085112 11 21 4.8 9.7 0.00 0.00 0.00 76 1012.7
20260507084046 11 47 4.8 9.7 0.00 0.00 0.00 76 1012.6
20260507083041 11 39 3.2 6.4 0.00 0.00 0.00 77 1012.7
20260507082036 10 18 4.8 9.7 0.00 0.00 0.00 79 1012.6
20260507081031 10 12 4.8 12.9 0.00 0.00 0.00 81 1012.6
20260507080028 10 357 6.4 14.5 0.00 0.00 0.00 82 1012.6
20260507075022 8 354 6.4 14.5 0.00 0.00 0.00 84 1012.6
20260507074018 8 0 6.4 12.9 0.00 0.00 0.00 85 1012.6
20260507073112 8 348 6.4 12.9 0.00 0.00 0.00 87 1012.6
20260507072107 7 26 8.0 17.7 0.00 0.00 0.00 88 1012.6
20260507071102 7 52 6.4 12.9 0.00 0.00 0.00 89 1012.5
20260507070057 7 6 8.0 14.5 0.00 0.00 0.00 91 1012.5
20260507065112 6 20 8.0 14.5 0.00 0.00 0.00 92 1012.5
20260507064107 6 32 6.4 12.9 0.00 0.00 0.00 93 1012.5
20260507063042 6 33 9.7 17.7 0.00 0.00 0.00 94 1012.6
20260507062037 6 42 6.4 9.7 0.00 0.00 0.00 94 1012.6
20260507061053 6 33 8.0 17.7 0.00 0.00 0.00 94 1012.6
20260507060027 6 37 11.3 17.7 0.00 0.00 0.00 94 1012.6
20260507055023 6 37 9.7 17.7 0.00 0.00 0.00 94 1012.3
20260507054017 6 42 9.7 17.7 0.00 0.00 0.00 94 1012.4
20260507053112 6 39 8.0 12.9 0.00 0.00 0.00 94 1012.4
20260507052108 6 38 9.7 14.5 0.00 0.00 0.00 94 1012.4
20260507051103 6 45 11.3 17.7 0.00 0.00 0.00 94 1012.5
20260507050058 6 36 11.3 17.7 0.00 0.00 0.00 94 1012.6
20260507045053 6 38 11.3 17.7 0.00 0.00 0.00 94 1012.5
20260507044048 6 35 11.3 20.9 0.00 0.00 0.00 94 1012.5
20260507043043 6 36 12.9 20.9 0.00 0.00 0.00 94 1012.7
20260507042038 6 26 11.3 22.5 0.00 0.00 0.00 94 1012.5
20260507041033 6 41 9.7 17.7 0.00 0.00 0.00 94 1012.6
20260507040028 6 8 8.0 17.7 0.00 0.00 0.00 94 1012.6
20260507035024 6 12 8.0 17.7 0.00 0.00 0.00 94 1012.6
20260507034018 6 24 4.8 11.3 0.00 0.00 0.00 94 1012.7
20260507033113 6 354 6.4 11.3 0.00 0.00 0.00 94 1012.7
20260507032108 6 344 4.8 9.7 0.00 0.00 0.00 94 1012.9
20260507031124 6 43 4.8 6.4 0.00 0.00 0.00 94 1012.8
20260507030058 6 33 6.4 11.3 0.00 0.00 0.00 94 1012.7
20260507025053 6 45 8.0 14.5 0.00 0.00 0.00 94 1012.8